Location: Oberkirch
(48.5323°N, 8.0787°E)
Time: 21:01:11
(UTC+00:00)

LilacSat-2 - Visible Passes

Search period start: 16 March 2026 00:00
Search period end: 26 March 2026 00:00
Orbit: 418 x 426 km, 97.5° (Epoch: 16 March)

Date Brightness Start Highest point End Pass type
(mag) Time Alt. Az. Time Alt. Az. Time Alt. Az.
16 Mar ? 18:15:18 10° SSE 18:18:30 56° ENE 18:21:44 10° N visible
17 Mar ? 19:04:09 10° SSW 19:07:07 31° W 19:10:05 10° NNW visible
18 Mar ? 18:20:12 10° SSE 18:23:25 65° ENE 18:26:40 10° N visible
19 Mar ? 19:09:08 10° SSW 19:11:59 28° W 19:14:52 10° NW visible
20 Mar ? 18:24:58 10° SSE 18:28:13 75° ENE 18:31:29 10° N visible
21 Mar ? 19:14:00 10° SSW 19:16:44 25° W 19:19:30 10° NW visible
22 Mar ? 18:29:38 10° SSE 18:32:52 86° ENE 18:36:08 10° NNW visible
23 Mar ? 19:18:46 10° SSW 19:21:22 22° W 19:23:59 10° NW visible
24 Mar ? 18:34:10 10° SSE 18:37:24 83° WSW 18:40:41 10° NNW visible
25 Mar ? 19:23:24 10° SW 19:25:52 20° W 19:28:20 10° NW visible
